Regional Weather Roundup
Issued by NWS

Home | Current Version | Previous Version | Graphics & Text | Print | Product List | Glossary On
Versions: 1 2 3 4 5 6 7 8 9 10 11 12 13 14 15 16 17 18 19 20 21 22 23 24 25 26 27 28 29 30 31 32 33 34 35 36 37 38 39 40 41 42 43 44 45 46 47 48 49 50
000
ASUS43 KIND 250100
RWRIN

WEATHER ROUNDUP FOR INDIANA
NATIONAL WEATHER SERVICE INDIANAPOLIS IN
900 PM EDT SUN SEP 24 2017

NOTE: "FAIR" INDICATES FEW OR NO CLOUDS BELOW 12,000 FEET WITH NO
SIGNIFICANT WEATHER AND/OR OBSTRUCTIONS TO VISIBILITY.

* - STATION DOES NOT REPORT WEATHER SUCH AS PRECIPITATION OR FOG.

+ - STATION NOT QUALITY CONTROLLED BY THE NATIONAL WEATHER SERVICE.
    USE DATA WITH CAUTION...ESPECIALLY DEWPOINT AND RELATIVE
    HUMIDITY OBSERVATIONS.

INZ001>003-010>013-019-020-250200-
NORTHWEST INDIANA

CITY           SKY/WX    TMP DP  RH WIND       PRES   REMARKS
GARY /AIRPORT/ CLEAR     70  64  83 CALM      30.02S
KNOX *+        CLEAR     68  61  77 E3        30.03R
LA PORTE +     CLEAR     69  62  79 CALM      30.04S

$$

LMZ046-743>745-250200-
SOUTHERN LAKE MICHIGAN

STATION/POSITION TIME  TEMP    WIND        PRES    WAVE
                       AIR SEA DIR/SP/G            HT
                 (UTC) (F)     (DEG/KT/KT) (MB)    (FT)
BURNS HARBOR     0040   84     120/  3/  7 1016.9R
MICHIGAN CITY    0030   82     110/  5/  5   N/A
5NW MICH CITY    0050   75 73   90/  4/  6   N/A     1

$$

INZ004-005-014>016-021>024-250200-
NORTH CENTRAL INDIANA

CITY           SKY/WX    TMP DP  RH WIND       PRES   REMARKS
GOSHEN         CLEAR     71  59  65 E6        30.05R
SOUTH BEND     CLEAR     73  60  63 CALM      30.05R
WARSAW +       CLEAR     70  61  73 E3        30.05R

$$

INZ006>009-017-018-025>027-250200-
NORTHEAST INDIANA

CITY           SKY/WX    TMP DP  RH WIND       PRES   REMARKS
AUBURN +       CLEAR     70  61  73 CALM      30.07R
FORT WAYNE     CLEAR     70  60  70 SE5       30.06S
KENDALLVILLE + CLEAR     70  65  85 CALM      30.08R

$$

INZ028-029-035-036-043>045-051>053-250200-
WEST CENTRAL INDIANA

CITY           SKY/WX    TMP DP  RH WIND       PRES   REMARKS
LAFAYETTE      CLEAR     74  60  61 E3        30.02R
TERRE HAUTE    CLEAR     73  59  61 E5        30.01R

$$

INZ030>032-037>040-046>048-054>057-064-065-250200-
CENTRAL INDIANA

CITY           SKY/WX    TMP DP  RH WIND       PRES   REMARKS
COLUMBUS       CLEAR     72  55  56 E6        30.04R
INDIANAPOLIS   PTCLDY    79  57  46 E7        30.04R
-EAGLE CREEK   CLEAR     79  56  45 S3        30.03R
KOKOMO +       CLEAR     74  56  53 SE7       30.06R
MT COMFORT *+  CLEAR     75  57  53 SE6       30.05S
SHELBYVILLE    CLEAR     69  58  67 E3        30.04R

$$

INZ033-034-041-042-049-050-058-059-250200-
EAST CENTRAL INDIANA

CITY           SKY/WX    TMP DP  RH WIND       PRES   REMARKS
MUNCIE         CLEAR     66  61  84 CALM      30.06S
RICHMOND +     CLEAR     68  52  56 E5        30.08S

$$

INZ060-061-067>069-081>083-085>088-250200-
SOUTHWEST INDIANA

CITY           SKY/WX    TMP DP  RH WIND       PRES   REMARKS
EVANSVILLE     CLEAR     79  64  60 CALM      30.00R
HUNTINGBURG +  PTCLDY    77  68  73 CALM      30.01R

$$

INZ062-063-066-070>080-084-089>092-250200-
SOUTH CENTRAL AND SOUTHEAST INDIANA

CITY           SKY/WX    TMP DP  RH WIND       PRES   REMARKS
BLOOMINGTON    CLEAR     71  57  61 CALM      30.04R
MADISON *+     PTCLDY    68  59  73 CALM      30.06R
SEYMOUR +      PTCLDY    73  57  56 CALM      30.03R

$$





USA.gov is the U.S. government's official web portal to all federal, state and local government web resources and services.